Regional Weather Roundup
Issued by NWS Newport/Morehead, NC

Current Version | Previous Version | Graphics & Text | Print | Product List | Glossary Off
Versions: 1 2 3 4 5 6 7 8 9 10 11 12 13 14 15 16 17 18 19 20 21 22 23 24 25 26 27 28 29 30 31 32 33 34 35 36 37 38 39 40 41 42 43 44 45 46 47 48 49 50

000
ASUS42 KMHX 221610
RWRMHX
WEATHER ROUNDUP FOR EASTERN NORTH CAROLINA
NATIONAL WEATHER SERVICE NEWPORT/MOREHEAD CITY NC
1200 PM EDT FRI AUG 22 2014

NOTE: "FAIR" INDICATES FEW OR NO CLOUDS BELOW 12,000 FEET
WITH NO SIGNIFICANT WEATHER AND/OR OBSTRUCTIONS TO VISIBILITY

NCZ015>017-031-032-045>047-102-103-221700-
NORTH COAST

CITY           SKY/WX    TMP DP  RH WIND       PRES   REMARKS
EDENTON        PTSUNNY   84  71  65 N6        29.99S
ELIZABETH CITY MOSUNNY   85  71  63 NW6       29.98S
KITTY HAWK     MOSUNNY   82  73  74 W6        29.97S
MANTEO         SUNNY     82  73  74 W10       29.98F

$$

NCZ045>047-081-094-103-104-221700-
CENTRAL COAST

CITY           SKY/WX    TMP DP  RH WIND       PRES   REMARKS
FRISCO         PTSUNNY   83  73  72 W8        29.99S
SWANQUARTER      N/A     88 N/A N/A NW7G13    29.94F

$$

NCZ095-097-098-100-101-221700-
SOUTHERN COAST

CITY           SKY/WX    TMP DP  RH WIND       PRES   REMARKS
BEAUFORT       MOSUNNY   91  71  51 W13       30.00F
CEDAR ISLAND     N/A     86 N/A N/A NW7       30.03S
JACKSONVILLE   PTSUNNY   89  72  56 W7        30.00F
NEWPORT        NOT AVBL
PINEY ISLAND   SUNNY     89  76  65 NW7       29.99F HX 100
WILMINGTON     MOSUNNY   91  72  53 NW8       30.02F


$$

NCZ011>013-027>030-043-044-078>080-089-090>093-098-221700-
COASTAL PLAIN

CITY           SKY/WX    TMP DP  RH WIND       PRES   REMARKS
AHOSKIE        PTSUNNY   81  71  69 N5        30.00F
CLINTON        MOSUNNY   90  74  58 CALM      30.02F
ELIZABETHTOWN  PTSUNNY   89  72  56 CALM      30.03F
GOLDSBORO      MOSUNNY   89  76  65 W10       29.98F HX 100
GREENVILLE     SUNNY     88  73  62 N6        30.01F
HAVELOCK       MOSUNNY   90  72  55 NW8G16    30.00F
KENANSVILLE    MOSUNNY   89  69  51 CALM      30.01F
KINSTON        SUNNY     90  72  55 W7        30.01F
NEW BERN       MOSUNNY   92  72  51 NW9       30.00F
RICHLANDS      PTSUNNY   91  72  52 W7        30.01F
ROANOKE RAPIDS NOT AVBL
ROCKY MOUNT    MOSUNNY   88  72  58 NW9       30.00F
WASHINGTON     SUNNY     86  71  61 N6        30.00F
WHITEVILLE     MOSUNNY   89  72  57 CALM      30.03S

$$

AMZ130-135-150-152-154-156-158-170-250-252-270-ANZ085-086-088-633-658-670-221700-
MARINE OBSERVATIONS

STATION/POSITION TIME  TEMP    WIND        PRES    WAVE   SWELL
                       AIR SEA DIR/SP/G            HT/PER HT/PER
                 (UTC) (F)     (DEG/KT/KT) (MB)    (FT/S) (FT/S)
CHESAPEAKE LIGHT 1500   80     310/ 13/ 14 1015.4
BUOY 44014       1600   78 79  310/ 10/ 12 1014.2    2/ 7   2/ 7
DUCK             1600   81 79  330/  7/  9 1014.3
2E DUCK          1600                        N/A     1/ 7
OREGON INLET     1600   83 83  270/  8/ 10 1015.0
BUOY 44095       1600      80                N/A     2/ 8
20E OREGON INLET NOT AVBL
HATTERAS CG      1600   83 82  280/  9/ 12 1016.1
DIAMOND BUOY     1600   79     280/  6/  8 1015.5    2/ 8   2/ 8
CAPE LOOKOUT     1500   85     270/  9/ 11 1016.1
BEAUFORT LAB     1600   89 83  300/  5/  9 1015.7
30 SE NEW RIVER  1600   82 83  290/  8/ 10 1016.1    2/ 4   2/ 4
5 SE WRIGHTSVILL 1600   84 83  230/  2/  2   N/A
BUOY 41002       1546   82 82  250/ 14/ 16 1018.1    2/ 9   2/ 9
BUOY 41004       1600   85 85  260/  6/  6 1016.9    2/ 4   2/ 9

$$



USA.gov is the U.S. government's official web portal to all federal, state and local government web resources and services.